Regional Weather Roundup
Issued by NWS Cleveland, OH

Home | Current Version | Previous Version | Graphics & Text | Print | Product List | Glossary On
Versions: 1 2 3 4 5 6 7 8 9 10 11 12 13 14 15 16 17 18 19 20 21 22 23 24 25 26 27 28 29 30 31 32 33 34 35 36 37 38 39 40 41 42 43 44 45 46 47 48 49 50
000
ASUS41 KCLE 291410
RWRCLE
OHIO REGIONAL WEATHER ROUNDUP
NATIONAL WEATHER SERVICE WILMINGTON, OH
1000 AM EDT FRI AUG 29 2014

NOTE: "FAIR" INDICATES FEW OR NO CLOUDS BELOW 12,000 FEET WITH NO
SIGNIFICANT WEATHER AND/OR OBSTRUCTIONS TO VISIBILITY.

OHZ001>008-015>018-024>027-034-035-043-044-291500-
   NORTHWEST OHIO

CITY           SKY/WX    TMP DP  RH WIND       PRES   REMARKS
DEFIANCE       PTSUNNY   66  55  67 E6        30.12F
FINDLAY        PTSUNNY   67  56  67 SE8       30.12F
TOLEDO EXPRESS PTSUNNY   64  54  69 SE5       30.13F
TOLEDO METCALF MOSUNNY   66  54  65 SE7       30.15S
LIMA           MOSUNNY   69  58  67 SE8       30.12S
$$

OHZ009>014-019>023-028>033-038-089-291500-
   NORTHEAST OHIO

CITY           SKY/WX    TMP DP  RH WIND       PRES   REMARKS
CLE-HOPKINS    MOSUNNY   64  53  67 S8        30.17F
CLE-LAKEFRONT  SUNNY     66  49  54 SE9G21    30.14F
CUY CO. ARPT   PTSUNNY   63  52  67 SE14      30.18S
LORAIN-ELYRIA  MOSUNNY   65  54  67 S8        30.16F
ASHTABULA      SUNNY     63  53  70 SE9       30.19F
AKRON-CANTON   MOSUNNY   65  53  65 SE6       30.17F
WOOSTER        SUNNY     62  54  74 SE6       30.18S
MANSFIELD      MOSUNNY   65  54  67 S10       30.16S
YOUNGSTOWN     PTSUNNY   61  52  72 SE7       30.19S
$$

OHZ042-051>053-060>062-070>072-077>081-291500-
  SOUTHWEST OHIO

CITY           SKY/WX    TMP DP  RH WIND       PRES   REMARKS
CINC-COVINGTON MOSUNNY   74  62  66 SE8       30.10S
CINC-LUNKEN    SUNNY     73  62  68 CALM      30.11R
HAMILTON       SUNNY     75  61  61 VRB5      30.11S
DAYTON         MOSUNNY   72  59  63 SE10      30.13R
WRIGHT-PAT AFB SUNNY     70  59  68 SE8       30.12S
DAYTON GENERAL SUNNY     70  59  68 SE8       30.11S
WILMINGTON     SUNNY     67  58  72 SE8       30.12S
$$

OHZ036-037-039>041-045>050-054>059-063>069-073>076-082>088-291500-
  CENTRAL AND SOUTHEAST OHIO

CITY           SKY/WX    TMP DP  RH WIND       PRES   REMARKS
COLUMBUS       MOSUNNY   71  54  54 SE8       30.13S
OSU AIRPORT    SUNNY     69  54  58 SE8       30.14S
BOLTON FIELD   SUNNY     68  57  68 E7        30.14S
RICKENBACK AFB SUNNY     71  52  51 E6        30.13F
NEWARK         SUNNY     68  57  68 VRB3      30.14S
MARION         MOSUNNY   67  56  67 SE10      30.14F
LANCASTER      SUNNY     70  57  63 E7        30.14S
ZANESVILLE     SUNNY     66  55  67 SE5       30.16R
NEW PHILLY     SUNNY     63  56  78 CALM      30.17F
$$



USA.gov is the U.S. government's official web portal to all federal, state and local government web resources and services.